Location: A�t �Alizem
(31.2076°N, 8.7872°W)
Time: 18:08:34
(UTC+00:00)

deb Explorer IX - Pass Details

Date: 30 June 2021
Orbit: 541 x 1234 km, 38.9° (Epoch: 03 August)

Event Time Altitude Azimuth Distance (km) Brightness Sun altitude
Exits shadow 03:48:37 34° 238° (WSW) 1,408 ? -19.2°
Maximum altitude 03:49:45 37° 214° (SSW) 1,368 ? -19.0°
Drops below altitude 10° 03:55:49 10° 149° (SSE) 2,796 ? -18.0°
Sets 03:58:56 0° 142° (SE) 3,857 ? -17.5°
